User: anonymous   Login
Location: Unspecified
(0.0000°N, 0.0000°E)
Time: 07:31:59
(UTC+00:00)
Language:

Envisat - Orbit

View from above orbital plane
View from above orbital plane
View from above satellite
View from above satellite

Ground track
Ground track

The orbit data is extracted from the following two-line orbital elements,

1 27386U 02009A   17290.78848487 -.00000009  00000-0  10754-4 0  9991
2 27386  98.2183 330.8629 0001241  87.2178 272.9147 14.37905554818698
Epoch (UTC): 17 October 2017 18:55:25
Eccentricity: 0.0001241
inclination: 98.2183°
perigee height: 764 km
apogee height: 766 km
right ascension of ascending node: 330.8629°
argument of perigee: 87.2178°
revolutions per day: 14.37905554
mean anomaly at epoch: 272.9147°
orbit number at epoch: 81869

The dashed part of the orbit path shows where the satellite is in the earth's shadow,  

DLR